SL-12 R/B(2)

基本信息
目录编号:
27473
目录名称:
SL-12 R/B(2)
国际标识:
2002-037D
轨道中心:
EARTH
物体状态:
在轨
发射日期:
2002-07-25 UTC
国别:
俄罗斯(独联体) (CIS)
轨道信息
数据来源: 国际轨道数据
星历时间: 2026-07-13T16:57:55+0800
半长轴: 8052.607km
偏心率: 0.0632822
轨道倾角: 63.415°
近地点辐角: 348.342°
升交点赤经: 182.982°
平近点角: 112.698°
近地点: 1164.883km
远地点: 2184.057km
周期: 119.857分钟
每日圈数: 12.014289
详细信息
发射场:
TTMTR
轨道高度:
LEO
数据来源:
AOE Integration Group
参考系:
TEME
时间系统:
UTC
历元类型:
SGP4
2D轨道图
3D轨道图
轨道高度分析图
轨道倾角分析图
轨道综合分析图
查看轨道综合分析图